Flag for Germany Weather past 2 weeks in Lehrte, Lower Saxony, Germany

Now
40 °F

Low clouds.


Feels Like: 36 °F
Forecast: 37 / 46 °F
Wind: 6 mph from West

Location: Hannover

Current Time: Mar 5, 2015 at 12:06:09 PM

Latest Report: Mar 5, 2015 at 11:00 AM


Visibility: 9 mi

Pressure: 30.57 "Hg

Humidity: 88%

Dew point: 36 °F

Location of LehrteLocation

Historic Weather in Lehrte — Graph

°F

Lehrte temperature yesterday

Maximum temperature yesterday: 42 °F (at 2:00 PM)
Minimum temperature yesterday: 35 °F (at 5:00 AM)
Average temperature yesterday: 38 °F

Past Weeks' High & Low Weather Summary

 TemperatureHumidityPressure
High49 °F (Mar 1, 1:00 PM)95% (Feb 27, 9:00 AM)30.74 "Hg (Feb 27, 9:00 AM)
Low30 °F (Feb 28, 3:00 AM)43% (Feb 28, 4:00 PM)29.32 "Hg (Feb 21, 7:00 AM)
Average40 °F77%29.88 "Hg
* Reported Feb 18 11:00 AM — Mar 5 11:00 AM, Lehrte, Weather by CustomWeather, © 2015

Note: Actual official high and low records may vary slightly from our data, if they occured in-between our weather recording intervals... More about our weather records

Advertising

Lehrte weather history for previous 24 hours

 ConditionsComfort  
Time TempWeatherWind HumidityBarometerVisibility
11:00 AM
Thu, Mar 5
40 °FLow clouds.6 mph88%30.57 "Hg9 mi
9:00 AM38 °FLow clouds.5 mph93%30.55 "Hg5 mi
8:00 AM38 °FLow clouds.5 mph94%30.54 "Hg6 mi
7:00 AM37 °FLow clouds.6 mph94%30.53 "Hg9 mi
6:00 AM35 °FOvercast.5 mph94%30.51 "Hg9 mi
5:00 AM36 °FPassing clouds.5 mph92%30.49 "Hg12 mi
3:00 AM37 °FPassing clouds.6 mph89%30.44 "Hg16 mi
2:00 AM38 °FPassing clouds.9 mph85%30.41 "Hg19 mi
1:00 AM39 °FOvercast.8 mph84%30.37 "Hg19 mi
12:00 AM39 °FOvercast.8 mph87%30.33 "Hg19 mi
11:00 PM
Wed, Mar 4
39 °FSprinkles. Low clouds.8 mph92%30.28 "Hg9 mi
9:00 PM38 °FSprinkles. Low clouds.7 mph92%30.23 "Hg9 mi
8:00 PM38 °FLow clouds.6 mph89%30.21 "Hg19 mi
7:00 PM37 °FSprinkles. Low clouds.6 mph89%30.20 "Hg19 mi
6:00 PM40 °FOvercast.6 mph77%30.16 "Hg16 mi
5:00 PM39 °FPartly sunny.7 mph83%30.16 "Hg19 mi
4:00 PM37 °FPartly sunny.5 mph91%30.17 "Hg16 mi
3:00 PM41 °FOvercast.7 mph77%30.15 "Hg16 mi
2:00 PM42 °FOvercast.9 mph74%30.15 "Hg16 mi
1:00 PM41 °FOvercast.8 mph75%30.16 "Hg16 mi
12:00 PM40 °FOvercast.7 mph77%30.15 "Hg11 mi
Weather by CustomWeather, © 2015

See weather overviewHow to use our weather pages